Location: Dąbrówka
(52.2799°N, 15.8070°E)
Time: 16:53:54
(UTC+01:00)

ISS - Pass Details

Date: 02 February 2019
Orbit: 403 x 411 km, 51.6° (Epoch: 20 February)

Event Time Altitude Azimuth Distance (km) Brightness Sun altitude
Rises 18:04:10 0° 272° (W) 2,336 1.8 -12.2°
Reaches altitude 10° 18:06:15 10° 271° (W) 1,476 0.4 -12.5°
Maximum altitude 18:09:34 80° 186° (S) 422 -3.8 -13.0°
Enters shadow 18:11:26 24° 100° (E) 907 -2.6 -13.3°
